{"data":{"norad_id":68613,"intl_designator":"2026-073M","name":"STARLINK-36187","alt_names":[],"object_type":"PAYLOAD","status":"ACTIVE","operator":null,"country":"US","launch_date":"2026-04-07","launch_site_code":"AFWTR","launch_vehicle":null,"mission":null,"orbit_class":"UNKNOWN","rcs_meters":null,"size_class":null,"mass_kg":null,"dimensions":null,"purposes":["comms"],"wikipedia_slug":null,"has_3d_model":false,"image_url":null,"decayed_at":null,"tle_current":{"epoch":"2026-09-19T20:05:05.878176Z","epoch_age_seconds":101217,"freshness":"FRESH","line1":"1 68613U 26073M   26262.83687359  .00013001  00000+0  40422-3 0  9998","line2":"2 68613  97.2866 100.9322 0000514  69.0974 291.0324 15.33456000 25641","mean_motion":15.33456,"eccentricity":5.14e-5,"inclination_deg":97.2866,"raan_deg":100.9322,"arg_perigee_deg":69.0974,"mean_anomaly_deg":291.0324,"bstar":0.00040422,"rev_number":2564,"period_min":93.905531035778,"perigee_km":465.15868293419,"apogee_km":465.86220989168,"semimajor_km":6843.6474464129,"source":"CELESTRAK","updated_at":"2026-09-20T09:00:43.944686Z"}}}